Regional Weather Roundup
Issued by NWS Wakefield, VA

Home | Current Version | Previous Version | Text Only | Print | Product List | Glossary On
Versions: 1 2 3 4 5 6 7 8 9 10 11 12 13 14 15 16 17 18 19 20 21 22 23 24 25 26 27 28
000
ASUS41 KAKQ 291415
RWRAKQ

REGIONAL WEATHER ROUNDUP
NATIONAL WEATHER SERVICE WAKEFIELD VA
1000 AM EDT FRI JUL 29 2016

Note: "fair" indicates few or no clouds below 12,000 feet with no
significant weather and/or obstructions to visibility. * = Denotes
station may not report precipitation (e.g., rain,snow,etc.),
thunder or fog.

VAZ042-051-052>054-056-291500-
NORTHERN VIRGINIA

CITY           SKY/WX    TMP DP  RH WIND       PRES   REMARKS
WASH NATIONAL  PTSUNNY   80  71  74 N9        29.89R
DULLES         PTSUNNY   76  69  79 N9        29.90S
FORT BELVOIR   PTSUNNY   78  71  79 VRB6      29.88S
QUANTICO       PTSUNNY   80  71  74 N9        29.89S
FREDERICKSBRG* FAIR      77  74  90 N9        29.88S
STAFFORD*      CLOUDY    77  71  81 N9        29.94R
WARRENTON      CLOUDY    78  67  68 NW10      29.90S
CULPEPER*      CLOUDY    77  71  80 N10       29.92S
MANASSAS*      CLOUDY    77  72  83 N8        29.90S
LEESBURG*      FAIR      79  73  83 NW10      29.92R
WINCHESTER     CLOUDY    73  68  83 CALM      29.93S
FRONT ROYAL*   CLOUDY    73  70  88 CALM      29.93S
LURAY*         NOT AVBL
$$

VAZ048-049-060>072-079>083-291500-
CENTRAL AND SOUTH CENTRAL VIRGINIA

CITY           SKY/WX    TMP DP  RH WIND       PRES   REMARKS
RICHMOND       PTSUNNY   77  71  82 N12       29.89R
CHESTERFIELD*  CLOUDY    79  63  57 N6        29.91R
PETERSBURG*    CLOUDY    79  73  80 NW8       29.91R
HANOVER        CLOUDY    76  71  85 N9        29.91R
TAPPAHANNOCK*  CLOUDY    77  77 100 N5        29.88S
QUINTON*       CLOUDY    77  74  92 NW6       29.87S
CHARLOTTSVILLE PTSUNNY   80  67  64 N7        29.92R
GORDONSVILLE*  CLOUDY    77  72  86 NE7       29.92R
ORANGE*          N/A     77  73  88 CALM      29.94R
LOUISA*        CLOUDY    81  73  78 N6        29.91R
BUMPASS*       CLOUDY    74  71  92 N3        29.91R
FARMVILLE*     FAIR      81  72  75 N8        29.91R
CREWE*         NOT AVBL
FORT PICKETT*  CLOUDY    79  76  88 N3        29.91R
CHASE CITY*    FAIR      80  72  76 NW6       29.91R
CLARKSVILLE*   FAIR      81  72  74 NW3       29.91R
SOUTH HILL*    FAIR      81  74  77 NW5       29.96S
LAWRENCEVILLE* CLOUDY    79  74  84 NW5       29.90R
EMPORIA*       CLOUDY    79  72  78 W7        29.92R
$$

VAZ088>098-291500-
SOUTHEAST VIRGINIA

CITY           SKY/WX    TMP DP  RH WIND       PRES   REMARKS
NORFOLK        PTSUNNY   83  74  74 W8        29.86R
VIRGINIA BEACH FAIR      91  73  55 NW15G21   29.85R HX  99
NORFOLK NAVAL  PTSUNNY   83  74  74 NW13      29.88R
WEST POINT*    CLOUDY    78  74  86 NW7       29.88S
SALUDA*        CLOUDY    79  76  92 NW10      29.85S
NEWPORT NEWS   CLOUDY    81  74  79 NW8       29.86R
LANGLEY AFB    MOSUNNY   81  74  80 NW13      29.86R
FORT EUSTIS    PTSUNNY   81  74  79 NW12      29.85R
WILLIAMSBURG*  FAIR      82  75  78 NW3       29.88R
HR EXEC AP*    CLOUDY    82  73  74 NW8       29.89R
FRANKLIN*      CLOUDY    80  73  76 NW13      29.89R
US460-WAKEFLD  CLOUDY    81  72  74 VRB6      29.88R
$$

VAZ020-022-025-037-045-291500-
WEST CENTRAL AND SOUTHWEST VIRGINIA

CITY           SKY/WX    TMP DP  RH WIND       PRES   REMARKS
STAUNTON*      FAIR      74  68  79 CALM      29.97S
WAYNESBORO*    PTSUNNY   74  67  80 CALM      29.97S
HOT SPRINGS VA CLOUDY    66  66 100 W10       30.07S FOG
LYNCHBURG      FAIR      80  70  71 N7        29.95R
DANVILLE       FAIR      81  69  67 W9        29.93R
SOUTH BOSTON*  FAIR     N/A N/A N/A NW8       29.92R
MARTINSVILLE   FAIR      80  66  62 N8        29.99R
ROANOKE        FAIR      79  67  66 W8        29.98S
BLACKSBURG     CLOUDY    73  67  80 W5        30.06S
DUBLIN*        FAIR      76  67  74 NW8       30.04F
MARION*        CLOUDY    73  67  82 W10       30.09S
HILLSVILLE*    FAIR      72  66  82 NW15G21   30.04S
RICHLANDS*     CLOUDY    68  68 100 CALM      30.09R
WISE*          FAIR      72  68  88 W5        30.09S
ABINGDON*      CLOUDY    74  69  87 W7        30.07S
$$

MDZ021>025-VAZ099-100-291500-
SOUTHERN MARYLAND AND THE DELMARVA PENINSULA

CITY           SKY/WX    TMP DP  RH WIND       PRES   REMARKS
PATUXENT RIVER LGT RAIN  77  72  84 N12       29.85R
BAY BRIDGE APT PTSUNNY   77  72  83 N10       29.86S
LEONARDTOWN      N/A     73  70  88 MISG        N/A
DOVER          CLOUDY    76  76 100 N17       29.82R
GEORGETOWN     CLOUDY    76  72  87 VRB6      29.84R
EASTON         PTSUNNY   77  75  94 NE10      29.88S
CAMBRIDGE      CLOUDY    73  70  88 N9        29.84S
SALISBURY      CLOUDY    79  73  83 MISG      29.83R
OCEAN CITY       N/A    N/A N/A N/A MISG      29.82R
WALLOPS ISLAND PTSUNNY   83  76  79 W8        29.83R
ACCOMACK*      CLOUDY    82  75  78 NW8G16    29.83S
$$

NCZ012>017-030>032-291500-
NORTH CENTRAL AND EASTERN NORTH CAROLINA

CITY           SKY/WX    TMP DP  RH WIND       PRES   REMARKS
ROANOKE RAPIDS FAIR      82  72  69 W9        29.90R
RALEIGH        MOSUNNY   84  69  60 NW9       29.92R
ELIZABETH CITY SUNNY     87  73  62 W14       29.86R
AHOSKIE*       SUNNY     83  74  75 NW3       29.88S
EDENTON*       SUNNY     88  71  56 W10       29.88S
CURRITUCK*     SUNNY     86  74  67 W10G17    29.86S
KILL DEVIL HLS SUNNY     89  73  58 W9G18     29.85S HX  97
MANTEO           N/A     86  75  69 W13G21    29.87S HX  95
CAPE HATTERAS  SUNNY     84  77  79 SW13      29.90S
TARBORO*       FAIR      87  74  65 NW7       29.90R
GOLDSBORO      SUNNY     87  73  63 W14G21    29.89R HX  95
WASHINGTON     SUNNY     85  73  67 W9        29.88S
GREENVILLE     SUNNY     86  73  66 W9        29.91S
NEW BERN       SUNNY     87  73  62 W13G20    29.91S
WILMINGTON     SUNNY     89  71  55 W17       29.92F HX  95
$$

VAZ048-291500-
ELSEWHERE

CITY           SKY/WX    TMP DP  RH WIND       PRES   REMARKS
HARRISBURG PA  SUNNY     79  71  76 NW8       29.87S
BALTIMORE      MOSUNNY   79  69  71 NW7       29.87S
ANNAPOLIS      MOSUNNY   78  71  79 N9        29.86S
ANDREWS AFB    PTSUNNY   77  70  80 N12       29.88R
PHILADELPHIA   PTSUNNY   77  71  82 N12       29.84F
GREENSBORO     PTSUNNY   82  66  58 NW14      29.96R
ROCKY MOUNT    SUNNY     85  74  69 W8        29.90R
$$

VAZ100-291500-
MARINE

STATION/POSITION TIME  TEMP    WIND        PRES    WAVE   SWELL
                       AIR SEA DIR/SP/G            HT/PER HT/PER
                 (UTC) (F)     (DEG/KT/KT) (MB)    (FT/S) (FT/S)
BRANDYWINE LGT   1300   76      10/ 20/ 22   N/A
CAPE MAY NJ      1300   76 72  300/  9/ 13 1008.3R
LEWES DE         1300   76 73  300/ 14/ 19 1009.3R
OCEAN-CITY-INLET 1300   75 71  220/  2/  3 1009.7R
WACHAPREAGUE VA  1300   81 83  290/  3/ 11 1009.9R
THOMAS POINT MD  1400   75 83  350/ 11/ 13 1012.6R
GOOSES REEF MD   1300   78 85   10/ 17/ 21 1011.7R   2/ 4
COVE POINT MD    1300   77      10/ 17/ 21 1011.1R
SOLOMONS ISLAND  1300   76 85  330/  8/ 11   N/A
BISHOPS HEAD MD  1300   79     330/ 11/ 17 1010.3R
PINEY POINT MD   1300           10/ 11/ 13   N/A
POTOMAC MD       1300   78 84  340/ 10/ 12 1009.5R   1/ 2
CAMBRIDGE MD     1300   76 87  360/ 14/ 18 1009.5R
LEWISETTA VA     1300   79 86  360/  8/ 14 1010.4R
RAPPAHANNOCK LGT 1300          290/ 13/ 15 1010.7R
STINGRAY PT      1300   80 85  240/ 12/ 16 1010.7R   1/ 2
YORK RVR RNG VA  1300   79     330/ 15/ 17 1010.2R
YORKTOWN VA      1300   79 85  310/ 14/ 18 1010.4R
JAMESTOWN VA     1300   79 89  310/ 12/ 16   N/A     1
DOMINION TERM VA 1300   80     300/ 14/ 17 1010.6R
KIPTOPEKE VA     1300      79  330/ 16/ 19   N/A
CHES BAY BRIDGE  1300   80 81  260/ 16/ 18 1010.4R
CAPE HENRY VA    1300   82     280/ 15/ 18   N/A
WILLOUBY STN VA  1300   80     280/ 13/ 15   N/A
CAPE HENRY BUOY  1312      75                N/A     2/ 4
1ST LANDING BUOY 1300   81 80  290/ 16/ 17 1010.0R   2/ 3
CAPE CHARLES BUO 1326      76                N/A     2/ 3
OFFSHORE WE BUOY 1321      81                N/A     3/ 4
64NM E OF VA BCH 1350   83 83  230/ 12/ 14 1010.5R   3/ 5   2/ 6
DUCK PIER NC     1300   84 66  250/ 18/ 20 1010.4R
44100 DUCK FRF   1305      80                N/A     2/ 3
44056 DUCK FRF   1311      74                N/A     1/ 7
OREGON INLET NC  1300   84 84  230/ 15/ 17 1011.2S
HATTERAS NC      1300   83 83  220/  8/ 12 1012.2R
DIAMOND SHLS NC  1250   84 85  240/ 17/ 19 1012.5    4/ 6   2/ 9
CAPE LOOKOUT NC  1400   86     240/ 13/ 16 1012.7R
$$




USA.gov is the U.S. government's official web portal to all federal, state and local government web resources and services.